FW4469 Weather Reports


Display with metric or nautical units.
time (UTC)temp
F
wind
direction
speed
MPH
gust
MPH
rain 1hr
in
rain 24hr
in
rain mn
in
humidity
%
barometer
mb
20260903145003 73 314 5.0 11.0 0.00 0.00 0.00 60 1015.9
20260903144003 70 310 5.0 14.0 0.00 0.00 0.00 62 1016.0
20260903143217 71 314 5.0 14.0 0.00 0.00 0.00 60 1016.0
20260903142003 72 313 6.0 15.0 0.00 0.00 0.00 59 1016.2
20260903141003 72 317 5.0 11.0 0.00 0.00 0.00 60 1016.2
20260903140223 72 313 5.0 12.0 0.00 0.00 0.00 61 1015.8
20260903135008 71 309 5.0 12.0 0.00 0.00 0.00 60 1015.9
20260903134003 71 315 5.0 15.0 0.00 0.00 0.00 60 1015.8
20260903133008 71 309 5.0 12.0 0.00 0.00 0.00 60 1016.0
20260903132008 72 307 5.0 15.0 0.00 0.00 0.00 58 1016.2
20260903131003 72 315 5.0 13.0 0.00 0.00 0.00 60 1016.1
20260903130217 71 317 5.0 12.0 0.00 0.00 0.00 61 1016.3
20260903125217 71 312 5.0 15.0 0.00 0.00 0.00 63 1016.1
20260903124008 71 315 5.0 12.0 0.00 0.00 0.00 66 1016.4
20260903123006 69 315 4.0 10.0 0.00 0.00 0.00 67 1016.3
20260903122008 68 314 6.0 12.0 0.00 0.00 0.00 67 1016.7
20260903121008 69 310 5.0 13.0 0.00 0.00 0.00 66 1016.6
20260903120008 70 316 5.0 11.0 0.00 0.00 0.00 67 1016.7
20260903115008 70 315 5.0 14.0 0.00 0.00 0.00 67 1016.6
20260903114003 69 318 5.0 11.0 0.00 0.00 0.00 66 1016.5
20260903113003 69 314 5.0 11.0 0.00 0.01 0.00 68 1016.7
20260903112003 69 313 5.0 14.0 0.00 0.01 0.00 70 1016.7
20260903111008 68 316 5.0 17.0 0.00 0.01 0.00 72 1016.8
20260903110218 67 321 4.0 12.0 0.00 0.01 0.00 70 1016.7
20260903105003 67 325 5.0 12.0 0.00 0.01 0.00 70 1016.6
20260903104218 66 316 5.0 13.0 0.00 0.01 0.00 70 1016.7
20260903103008 66 317 4.0 9.0 0.00 0.01 0.00 73 1016.8
20260903102003 67 313 4.0 10.0 0.00 0.01 0.00 73 1016.9
20260903101003 65 317 5.0 11.0 0.00 0.01 0.00 77 1016.8
20260903100008 65 319 5.0 12.0 0.00 0.01 0.00 73 1016.8
20260903095003 65 316 5.0 12.0 0.00 0.01 0.00 75 1016.9
20260903094003 65 308 5.0 11.0 0.00 0.02 0.00 77 1016.9
20260903093003 64 313 4.0 9.0 0.00 0.02 0.00 79 1016.8
20260903092008 64 321 5.0 11.0 0.00 0.02 0.00 80 1016.6
20260903091003 64 320 5.0 13.0 0.00 0.03 0.00 80 1016.8
20260903090004 63 322 5.0 16.0 0.00 0.03 0.00 82 1016.6
20260903085009 63 313 4.0 10.0 0.00 0.03 0.00 82 1016.5
20260903084217 63 313 4.0 12.0 0.00 0.03 0.00 84 1016.6
20260903083008 62 319 5.0 13.0 0.00 0.03 0.00 86 1016.4
20260903082008 62 321 5.0 14.0 0.00 0.03 0.00 86 1016.7
20260903081003 61 328 4.0 11.0 0.00 0.03 0.00 87 1016.6
20260903080003 61 316 4.0 13.0 0.00 0.03 0.00 88 1016.4
20260903075217 61 324 5.0 13.0 0.00 0.03 0.00 88 1016.5
20260903074223 61 328 4.0 14.0 0.00 0.03 0.00 89 1016.3
20260903073003 61 330 4.0 11.0 0.00 0.03 0.00 88 1016.5
20260903072009 61 323 4.0 9.0 0.00 0.03 0.00 89 1016.2
20260903071008 60 322 4.0 10.0 0.00 0.03 0.00 89 1016.2
20260903070004 61 326 5.0 14.0 0.00 0.03 0.00 89 1016.2
20260903065006 60 338 6.0 10.0 0.00 0.04 0.00 89 1015.7
20260903064222 61 333 6.0 12.0 0.00 0.04 0.00 89 1015.8
20260903063003 60 324 4.0 9.0 0.00 0.04 0.00 89 1015.5
20260903062008 60 317 4.0 9.0 0.00 0.04 0.00 89 1015.5
20260903061008 60 323 4.0 10.0 0.00 0.04 0.00 89 1015.1
20260903060218 60 329 5.0 12.0 0.00 0.04 0.00 89 1015.1
20260903055008 60 321 5.0 13.0 0.00 0.04 0.00 89 1014.9
20260903054008 60 330 4.0 10.0 0.00 0.04 0.00 88 1015.2
20260903053008 60 306 4.0 11.0 0.00 0.04 0.00 89 1014.9
20260903052218 60 316 4.0 10.0 0.00 0.04 0.00 89 1014.8
20260903051003 61 334 5.0 14.0 0.00 0.04 0.00 89 1014.9
20260903050003 60 332 5.0 11.0 0.00 0.04 0.00 90 1014.8
20260903045003 61 315 5.0 12.0 0.00 0.04 0.00 90 1015.0
20260903044004 61 332 6.0 11.0 0.00 0.04 0.00 90 1014.9
20260903043008 61 316 4.0 11.0 0.00 0.04 0.00 90 1014.8
20260903042003 61 315 5.0 10.0 0.00 0.04 0.00 91 1014.9
20260903041004 61 294 3.0 10.0 0.00 0.04 0.00 91 1015.0
20260903040003 61 327 5.0 13.0 0.00 0.04 0.00 92 1014.6
20260903035008 61 330 6.0 14.0 0.00 0.04 0.00 92 1014.7
20260903034003 61 320 4.0 9.0 0.00 0.04 0.00 92 1014.7
20260903033003 61 320 4.0 10.0 0.00 0.04 0.00 92 1014.8
20260903032004 61 311 4.0 9.0 0.00 0.04 0.00 92 1014.9
20260903031003 61 299 4.0 13.0 0.00 0.04 0.00 92 1015.1
20260903030005 61 339 6.0 16.0 0.00 0.04 0.00 92 1015.0
20260903025003 61 342 4.0 9.0 0.00 0.04 0.00 91 1014.8
20260903024223 61 324 4.0 9.0 0.00 0.04 0.00 91 1014.8
20260903023008 61 327 4.0 11.0 0.00 0.04 0.00 90 1014.9
20260903022008 61 299 3.0 9.0 0.00 0.04 0.00 89 1015.2
20260903021003 61 303 3.0 9.0 0.00 0.04 0.00 89 1014.8
20260903020003 61 316 4.0 8.0 0.00 0.04 0.00 88 1015.1
20260903015004 61 326 4.0 9.0 0.00 0.04 0.00 88 1015.0
20260903014003 61 313 4.0 10.0 0.00 0.04 0.00 87 1015.1
20260903013008 61 325 4.0 9.0 0.00 0.04 0.00 87 1015.0
20260903012003 61 323 5.0 13.0 0.00 0.04 0.00 86 1014.9
20260903011003 61 324 4.0 12.0 0.00 0.04 0.00 87 1014.7
20260903010008 61 321 4.0 11.0 0.00 0.04 0.00 88 1014.7
20260903005220 61 323 4.0 11.0 0.00 0.04 0.00 90 1014.8
20260903004008 61 321 4.0 11.0 0.00 0.04 0.00 95 1014.8
20260903003218 61 325 4.0 13.0 0.00 0.04 0.00 97 1014.9
20260903002004 61 326 4.0 9.0 0.00 0.04 0.00 97 1015.1
20260903001004 61 327 4.0 11.0 0.00 0.04 0.00 97 1015.2
20260903000004 61 329 4.0 10.0 0.00 0.04 0.00 97 1014.7
20260902235003 61 326 4.0 18.0 0.00 0.04 0.00 97 1014.9
20260902234003 61 325 4.0 11.0 0.00 0.04 0.00 97 1014.9
20260902233008 61 325 4.0 8.0 0.00 0.04 0.00 97 1015.0
20260902232008 61 325 4.0 9.0 0.00 0.04 0.00 97 1015.0
20260902231008 62 325 4.0 9.0 0.00 0.04 0.00 96 1014.9
20260902230008 62 326 4.0 12.0 0.00 0.04 0.00 96 1014.9
20260902225003 62 334 4.0 11.0 0.00 0.04 0.04 96 1015.1
20260902224003 61 327 4.0 14.0 0.00 0.04 0.04 96 1014.8
20260902223008 62 326 4.0 13.0 0.00 0.04 0.04 96 1014.6
20260902222008 62 327 5.0 12.0 0.00 0.04 0.04 96 1014.9
20260902221217 62 322 4.0 11.0 0.00 0.04 0.04 95 1015.0
20260902220009 62 326 4.0 13.0 0.00 0.04 0.04 95 1014.9
20260902215223 61 316 4.0 11.0 0.00 0.04 0.04 95 1014.9
20260902214014 62 325 4.0 9.0 0.00 0.04 0.04 94 1015.0
20260902213003 62 322 4.0 9.0 0.00 0.04 0.04 94 1015.1
20260902212008 62 322 4.0 9.0 0.00 0.04 0.04 94 1014.9
20260902211008 62 312 4.0 10.0 0.00 0.04 0.04 93 1015.0
20260902210003 62 325 4.0 10.0 0.00 0.04 0.04 93 1015.1
20260902205008 62 319 4.0 11.0 0.00 0.04 0.04 93 1015.2
20260902204008 62 318 3.0 9.0 0.00 0.04 0.04 93 1015.3
20260902203008 62 318 4.0 8.0 0.00 0.04 0.04 92 1015.1
20260902202003 62 321 4.0 12.0 0.00 0.04 0.04 92 1015.0
20260902201008 62 322 4.0 14.0 0.00 0.04 0.04 91 1015.0
20260902200013 62 322 4.0 11.0 0.00 0.04 0.04 91 1014.9
20260902195003 62 321 4.0 9.0 0.00 0.04 0.04 90 1014.9
20260902194218 63 318 3.0 10.0 0.00 0.04 0.04 90 1014.8
20260902193222 63 320 4.0 11.0 0.00 0.04 0.04 90 1014.7
20260902192228 63 320 4.0 12.0 0.00 0.04 0.04 90 1014.9
20260902191218 63 324 4.0 11.0 0.00 0.04 0.04 89 1014.6
20260902190222 63 327 4.0 9.0 0.00 0.04 0.04 89 1014.7
20260902185003 63 323 4.0 10.0 0.00 0.04 0.04 88 1014.5
20260902184009 64 323 4.0 10.0 0.00 0.04 0.04 88 1014.5
20260902183009 64 318 4.0 10.0 0.00 0.04 0.04 88 1014.5
20260902182222 64 323 4.0 9.0 0.00 0.04 0.04 89 1014.6
20260902181008 64 321 4.0 10.0 0.00 0.04 0.04 89 1014.4
20260902180222 64 315 4.0 10.0 0.00 0.04 0.04 89 1014.4
20260902175003 64 324 4.0 9.0 0.00 0.04 0.04 89 1014.5
20260902174004 64 317 4.0 9.0 0.00 0.04 0.04 90 1014.6
20260902173008 64 313 4.0 10.0 0.00 0.04 0.04 90 1014.4
20260902172004 64 321 4.0 14.0 0.00 0.04 0.04 90 1014.2
20260902171223 64 314 4.0 9.0 0.00 0.04 0.04 91 1014.5
20260902170008 65 315 4.0 11.0 0.00 0.04 0.04 90 1014.4
20260902165223 65 312 4.0 12.0 0.00 0.04 0.04 90 1014.5
20260902164008 65 323 4.0 13.0 0.00 0.04 0.04 91 1014.3
20260902163008 65 321 4.0 12.0 0.00 0.04 0.04 90 1014.2
20260902162008 65 321 4.0 12.0 0.00 0.04 0.04 92 1014.3
20260902161008 65 316 3.0 8.0 0.00 0.04 0.04 93 1014.3
20260902160005 65 325 4.0 10.0 0.00 0.04 0.04 94 1014.4
20260902155008 65 307 3.0 6.0 0.00 0.04 0.04 96 1014.4
20260902154003 64 319 4.0 7.0 0.00 0.04 0.04 96 1014.5
20260902153008 64 313 4.0 8.0 0.00 0.04 0.04 97 1014.7
20260902152004 64 319 3.0 8.0 0.00 0.04 0.04 96 1014.6
20260902151217 64 319 4.0 7.0 0.00 0.04 0.04 97 1014.5
20260902150003 63 317 3.0 7.0 0.00 0.04 0.04 97 1014.8